This demonstration page uses our WeatherBlox Daily Observations layout. Learn more.

Left ArrowRight Arrow

34.02893, -84.19858

Hourly Observations for June 10, 2020

Temp ( °F °C ) Dew Point ( °F °C ) Humidity (%) Winds ( mph kmh ) Pressure ( in mb ) Visibility ( mi km ) Precip ( " mm )
12:41 am 00:41 Mostly Cloudy 73 22.8 73 22.8 100 100 Calm 29.97 1015 9 14 0.00 0.00
12:53 am 00:53 Cloudy 73 22.8 73 22.8 100 100 Calm 29.95 1014 10 16 0.00 0.00
1:19 am 01:19 Mostly Cloudy 73 22.8 73 22.8 100 100 SSW 5 7 29.96 1015 10 16 0.00 0.00
1:35 am 01:35 Partly Cloudy 73 22.8 72 22.2 96 96 SSE 3 6 29.96 1015 10 16 0.00 0.00
1:50 am 01:50 Mostly Clear 73 23 72 22 94 94 S 3 6 29.95 1014 9 14 0.00 0.00
1:53 am 01:53 Mostly Clear 73 22.8 72 22.2 96 96 VRB 3 6 29.93 1014 9 14 0.00 0.00
2:17 am 02:17 Mostly Cloudy 73 22.8 73 22.8 100 100 S 5 7 29.94 1014 10 16 0.00 0.00
2:53 am 02:53 Cloudy 73 22.8 73 22.8 100 100 SW 3 6 29.92 1013 10 16 0.00 0.00
3:53 am 03:53 Cloudy 73 22.8 71 21.7 94 94 SW 8 13 29.93 1014 10 16 0.00 0.00
4:21 am 04:21 Cloudy 73 22.8 71 21.7 94 94 SSW 5 7 29.94 1014 10 16 0.00 0.00
4:53 am 04:53 Cloudy 73 22.8 72 22.2 96 96 SW 6 9 29.93 1014 10 16 0.00 0.00
5:53 am 05:53 Cloudy 73 22.8 72 22.2 96 96 S 5 7 29.96 1014 7 11 0.00 0.00
6:38 am 06:38 Cloudy 73 22.8 72 22.2 96 96 S 3 6 29.97 1015 9 14 0.00 0.00
6:53 am 06:53 Cloudy 73 22.8 72 22.2 96 96 Calm 29.98 1015 8 13 0.00 0.00
7:53 am 07:53 Cloudy 73 22.8 72 22.2 96 96 S 5 7 29.97 1015 8 13 0.00 0.00
8:53 am 08:53 Cloudy 74 23.3 73 22.8 97 97 S 5 7 29.96 1015 10 16 0.00 0.00
9:00 am 09:00 Cloudy 74 23.3 73 22.8 97 97 S 6 9 29.97 1015 10 16 0.00 0.00
9:53 am 09:53 Cloudy 75 23.9 73 22.8 94 94 S 7 11 29.97 1015 10 16 0.00 0.00
10:19 am 10:19 Cloudy 76 24.4 73 22.8 91 91 S 6 9 29.97 1015 10 16 0.00 0.00
10:53 am 10:53 Cloudy 77 25 74 23.3 90 90 S 8 13 29.96 1014 9 14 0.00 0.00
11:53 am 11:53 Cloudy 76 24.4 74 23.3 94 94 SSE 7 11 29.96 1014 9 14 0.02 0.51
12:00 pm 12:00 Cloudy 78 25.6 75 23.9 90 90 S 8 13 29.95 1014 10 16 0.00 0.00
12:08 pm 12:08 Cloudy 78 25.6 75 23.9 90 90 S 8 13 29.95 1014 10 16 0.00 0.00
12:53 pm 12:53 Mostly Cloudy with Rain 77 25 74 23.3 90 90 S 9 15 29.95 1014 4 6 0.02 0.51
12:56 pm 12:56 Mostly Cloudy with Rain 77 25 74 23.3 90 90 S 12 19 29.96 1014 2 3 0.04 1.02
1:00 pm 13:00 Mostly Cloudy with Nearby Thunderstorms 76 24.4 75 23.9 97 97 SSW 9 15 29.96 1015 1 1 0.13 3.30
1:10 pm 13:10 Cloudy with Nearby Thunderstorms 75 23.9 75 23.9 100 100 S 13 20 29.96 1015 0 0 0.42 10.67
1:16 pm 13:16 Cloudy with Rain 74 23.3 72 22.2 94 94 SSW 12 19 29.96 1015 1 1 0.45 11.43
1:20 pm 13:20 Cloudy with Light Rain 75 23.9 73 22.8 94 94 S 10 17 29.96 1015 2 3 0.46 11.68
1:28 pm 13:28 Cloudy with Light Rain 74 23.3 73 22.8 97 97 S 10 17 29.96 1015 3 5 0.47 11.94
1:53 pm 13:53 Mostly Cloudy with Nearby Thunderstorms 75 23.9 74 23.3 96 96 S 7 11 29.96 1015 7 11 0.49 12.45
2:02 pm 14:02 Partly Cloudy with Light Rain 75 23.9 74 23.3 96 96 SSW 8 13 29.96 1015 10 16 0.00 0.00
2:16 pm 14:16 Mostly Sunny 77 25 75 23.9 94 94 S 9 15 29.96 1014 10 16 0.00 0.00
2:53 pm 14:53 Partly Cloudy 80 26.7 75 23.9 85 85 S 9 15 29.93 1014 10 16 0.00 0.00
3:53 pm 15:53 Partly Cloudy 81 27.2 74 23.3 79 79 S 9 15 29.91 1013 10 16 0.00 0.00
4:01 pm 16:01 Mostly Cloudy 81 27.2 74 23.3 79 79 S 10 17 29.91 1013 10 16 0.00 0.00
4:30 pm 16:30 Partly Cloudy 83 28.3 75 23.9 77 77 S 13 20 29.90 1012 10 16 0.00 0.00
4:53 pm 16:53 Partly Cloudy with Nearby Thunderstorms 82 27.8 75 23.9 79 79 S 9 15 29.90 1013 10 16 0.00 0.00
5:08 pm 17:08 Mostly Cloudy with Thunderstorms 81 27.2 74 23.3 79 79 S 9 15 29.91 1013 10 16 0.00 0.00
5:19 pm 17:19 Cloudy with Nearby Thunderstorms 79 26.1 75 23.9 88 88 WSW 13 20 29.92 1013 2 3 0.06 1.52
5:26 pm 17:26 Cloudy with Nearby Thunderstorms 77 25 75 23.9 94 94 SW 7 11 29.92 1013 1 2 0.12 3.05
5:31 pm 17:31 Cloudy with Light Rain 78 25.6 76 24.4 93 93 SSW 7 11 29.91 1013 4 6 0.12 3.05
5:53 pm 17:53 Partly Cloudy 78 25.6 76 24.4 93 93 SSW 5 7 29.91 1013 10 16 0.12 3.05
6:15 pm 18:15 Mostly Cloudy with Light Rain 79 26.1 76 24.4 90 90 S 12 19 29.91 1013 1 2 0.14 3.56
6:22 pm 18:22 Mostly Cloudy with Light Rain 78 25.6 75 23.9 90 90 S 13 20 29.90 1013 10 16 0.18 4.57
6:33 pm 18:33 Partly Cloudy 78 25.6 75 23.9 90 90 SSW 6 9 29.90 1013 10 16 0.18 4.57
6:53 pm 18:53 Partly Cloudy 79 26.1 75 23.9 88 88 SSW 10 17 29.90 1013 10 16 0.18 4.57
7:53 pm 19:53 Sunny 78 25.6 73 22.8 85 85 S 8 13 29.91 1013 10 16 0.00 0.00
8:39 pm 20:39 Mostly Cloudy 77 25 74 23.3 90 90 S 7 11 29.93 1013 10 16 0.00 0.00
8:53 pm 20:53 Cloudy 76 24.4 74 23.3 94 94 S 6 9 29.93 1013 10 16 0.00 0.00
9:53 pm 21:53 Mostly Cloudy 74 23.3 72 22.2 94 94 S 6 9 29.94 1014 10 16 0.00 0.00
10:53 pm 22:53 Mostly Cloudy 73 22.8 72 22.2 96 96 S 5 7 29.96 1015 10 16 0.00 0.00
11:24 pm 23:24 Mostly Cloudy 73 22.8 72 22.2 96 96 S 5 7 29.98 1015 10 16 0.00 0.00
11:53 pm 23:53 Mostly Cloudy 73 22.8 72 22.2 96 96 S 6 9 29.97 1015 10 16 0.00 0.00

Powered by AerisWeather